SL-16 DEB, 39860

Orbit data source: Space-Track

SL-16 DEB, 39860 is space debris in LEO originally from a launch on Fri, 25 Dec 1992 UTC launched from the Tyuratam Missile And Space Complex (TTMTR). Debris objects in space refer to the collection of defunct objects orbiting the Earth. Examples of debris include non-operational satellites, rocket bodies, and fragments generated from explosions, collisions, or faulty payload assembly.

Loading next visibility...
Identifier
39860, 1992-093LN
Orbit
LEO
Country
Flag of CISCIS
Related business
Manufacturer
Unknown
Mission
Spacecraft
Bus & Motor
Unknown
Mass
Unknown
Launch date (UTC)
1992-12-25 (33 years ago)
Launch vehicle
Unknown
Launch site
Tyuratam Missile And Space Complex (TTMTR)
Object type
Payload
Rocket body
Debris
Shape & HBR
Unknown shape, 0.1 m
Radar Cross Section
Small (<0.1 m²)

Expand to show TLE details & history
Last TLE update: 6 days ago

TLE from 6 days ago
0 SL-16 DEB
1 39860U 92093LN  26031.43003978  .00001514  00000-0  57576-3 0  9999
2 39860  70.7864 292.5837 0026777 126.8614 233.4978 14.32417170606966
Epoch: 2026-01-31T10:19Z
TLE epoch observation values (Epoch: 2026-01-31T10:19:15.436Z)
Latitude
0.00008°
Longitude
7.11526°
Altitude
797.511 km
Speed
7.449 km/s
True Right ascension
19h 30m 20s
True Declination
0° 00' 00"
Sunlit
Object was in daylight at epoch
Visualization orbit readout
Latitude
Unknown
Longitude
Unknown
Altitude
Unknown
Speed
Unknown
Apparent Right ascension
Unknown
Apparent Declination
Unknown
Sunlit
N/A
Visualization observer readout
Local Sidereal Time
12:07:03
Azimuth
Unknown
Elevation
Unknown
Doppler factor
Unknown
Orbital elements
Apogee altitude
800.763 km
Perigee altitude
762.42 km
Semi-major axis
7,159.729 km
Eccentricity
0.00268
Inclination
70.7864°
RAAN
292.5837°
Arg. of periapsis
126.8614°
True anomaly
233.25164°
Mean anomaly
233.4978°
Eccentric anomaly
233.37467°
Mean motion
3.5826 °/min
Orbital period
100.49 mins
BSTAR
0.00057576
Loading maneuver chart data...
Computing Atmospheric mass density...
Loading historical data...
Loading historical data...
Loading historical data...
Loading historical data...
Loading historical data...
Loading historical data...
Loading historical data...

Documentation

Showing up to 5 results
|